TimeAEST,TemperatureF,Dew PointF,Humidity,Sea Level PressureIn,VisibilityMPH,Wind Direction,Wind SpeedMPH,Gust SpeedMPH,PrecipitationIn,Events,Conditions,WindDirDegrees,DateUTC
12:00 AM,64,56,68,30.34,16,South,5.8,,,,Partly Cloudy,190,2013-05-08 14:00:00
12:00 AM,64.4,55.4,73,30.33,6.2,South,5.8,-,N/A,,Mostly Cloudy,190,2013-05-08 14:00:00
12:30 AM,62.6,57.2,82,30.33,-9999.0,South,8.1,-,N/A,,Clear,190,2013-05-08 14:30:00
1:00 AM,62,56,76,30.33,,South,5.8,,,,,190,2013-05-08 15:00:00
1:00 AM,62.6,57.2,82,30.30,-9999.0,South,5.8,-,N/A,,Clear,190,2013-05-08 15:00:00
1:30 AM,59.0,55.4,88,30.30,-9999.0,SSW,8.1,-,N/A,,Clear,200,2013-05-08 15:30:00
2:00 AM,60.8,55.4,82,30.30,-9999.0,South,8.1,-,N/A,,Clear,190,2013-05-08 16:00:00
2:30 AM,60.8,51.8,72,30.30,-9999.0,SSW,8.1,-,N/A,,Clear,200,2013-05-08 16:30:00
3:00 AM,57,52,79,30.30,19,SSW,6.9,,,,Partly Cloudy,210,2013-05-08 17:00:00
3:00 AM,57.2,51.8,82,30.30,-9999.0,SSW,6.9,-,N/A,,Clear,210,2013-05-08 17:00:00
3:30 AM,57.2,51.8,82,30.30,-9999.0,SSW,10.4,-,N/A,,Clear,210,2013-05-08 17:30:00
4:00 AM,57,52,77,30.30,,SSW,9.2,,,,,210,2013-05-08 18:00:00
4:00 AM,57.2,51.8,82,30.30,-9999.0,SSW,9.2,-,N/A,,Clear,210,2013-05-08 18:00:00
4:30 AM,55.4,51.8,88,30.30,-9999.0,SSW,8.1,-,N/A,,Clear,210,2013-05-08 18:30:00
5:00 AM,55.4,51.8,88,30.30,6.2,SSW,8.1,-,N/A,,Partly Cloudy,210,2013-05-08 19:00:00
5:30 AM,55.4,51.8,88,30.30,6.2,SSW,9.2,-,N/A,,Partly Cloudy,210,2013-05-08 19:30:00
6:00 AM,57,53,80,30.33,19,SSW,9.2,,,,Scattered Clouds,210,2013-05-08 20:00:00
6:00 AM,57.2,51.8,82,30.33,6.2,SSW,9.2,-,N/A,,Partly Cloudy,210,2013-05-08 20:00:00
6:30 AM,57.2,53.6,88,30.33,6.2,SSW,11.5,-,N/A,,Partly Cloudy,210,2013-05-08 20:30:00
7:00 AM,58,54,82,30.35,,SSW,10.4,,,,,210,2013-05-08 21:00:00
7:00 AM,57.2,53.6,88,30.33,6.2,SSW,10.4,-,N/A,,Partly Cloudy,210,2013-05-08 21:00:00
7:30 AM,60.8,55.4,82,30.36,6.2,SSW,10.4,-,N/A,,Partly Cloudy,210,2013-05-08 21:30:00
8:00 AM,62.6,55.4,77,30.36,6.2,SSW,11.5,-,N/A,,Partly Cloudy,210,2013-05-08 22:00:00
8:30 AM,64.4,55.4,73,30.36,6.2,SSW,8.1,-,N/A,,Scattered Clouds,200,2013-05-08 22:30:00
9:00 AM,65,56,65,30.38,19,SSW,8.1,,,,Mostly Cloudy,210,2013-05-08 23:00:00
9:00 AM,66.2,55.4,68,30.36,6.2,SSW,8.1,-,N/A,,Mostly Cloudy,210,2013-05-08 23:00:00
9:30 AM,68.0,55.4,64,30.36,6.2,SSW,9.2,-,N/A,,Scattered Clouds,200,2013-05-08 23:30:00
10:00 AM,71,56,48,30.38,,South,8.1,,,,,170,2013-05-09 00:00:00
10:00 AM,71.6,55.4,57,30.36,6.2,South,8.1,-,N/A,,Scattered Clouds,170,2013-05-09 00:00:00
10:30 AM,71.6,55.4,57,30.36,6.2,SSE,9.2,-,N/A,,Partly Cloudy,160,2013-05-09 00:30:00
11:00 AM,73.4,55.4,53,30.33,6.2,SE,9.2,-,N/A,,Partly Cloudy,130,2013-05-09 01:00:00
11:30 AM,73.4,55.4,53,30.33,6.2,SE,11.5,-,N/A,,Partly Cloudy,130,2013-05-09 01:30:00
12:00 PM,73,55,44,30.32,19,SE,11.5,,,,Partly Cloudy,130,2013-05-09 02:00:00
12:00 PM,73.4,55.4,53,30.30,6.2,SE,11.5,-,N/A,,Partly Cloudy,130,2013-05-09 02:00:00
12:30 PM,73.4,53.6,50,30.30,6.2,ESE,10.4,-,N/A,,Partly Cloudy,120,2013-05-09 02:30:00
1:00 PM,73,54,40,30.30,,ESE,10.4,,,,,120,2013-05-09 03:00:00
1:00 PM,73.4,53.6,50,30.30,6.2,ESE,10.4,-,N/A,,Partly Cloudy,120,2013-05-09 03:00:00
1:30 PM,73.4,53.6,50,30.27,6.2,ESE,10.4,-,N/A,,Partly Cloudy,120,2013-05-09 03:30:00
2:00 PM,73.4,55.4,53,30.27,6.2,ESE,11.5,-,N/A,,Partly Cloudy,120,2013-05-09 04:00:00
2:30 PM,71.6,53.6,53,30.27,6.2,SE,12.7,-,N/A,,Scattered Clouds,130,2013-05-09 04:30:00
3:00 PM,72,53,41,30.28,19,SSE,10.4,,,,Partly Cloudy,160,2013-05-09 05:00:00
3:00 PM,71.6,53.6,53,30.27,6.2,SSE,10.4,-,N/A,,Scattered Clouds,160,2013-05-09 05:00:00
3:30 PM,69.8,53.6,56,30.27,6.2,SSE,8.1,-,N/A,,Scattered Clouds,150,2013-05-09 05:30:00
4:00 PM,70,55,49,30.29,,South,6.9,,,,,170,2013-05-09 06:00:00
4:00 PM,69.8,55.4,60,30.27,6.2,South,6.9,-,N/A,,Scattered Clouds,170,2013-05-09 06:00:00
4:30 PM,69.8,55.4,60,30.27,6.2,SSE,5.8,-,N/A,,Mostly Cloudy,160,2013-05-09 06:30:00
5:00 PM,68.0,57.2,68,30.30,6.2,SSE,6.9,-,N/A,,Mostly Cloudy,150,2013-05-09 07:00:00
5:30 PM,69.8,55.4,60,30.30,6.2,SSE,9.2,-,N/A,,Mostly Cloudy,150,2013-05-09 07:30:00
6:00 PM,69,57,56,30.32,19,SE,8.1,,,,Mostly Cloudy,140,2013-05-09 08:00:00
6:00 PM,68.0,57.2,68,30.30,6.2,SE,8.1,-,N/A,,Mostly Cloudy,140,2013-05-09 08:00:00
6:30 PM,68.0,57.2,68,30.33,6.2,SSE,8.1,-,N/A,,Mostly Cloudy,150,2013-05-09 08:30:00
7:00 PM,67,57,63,30.33,,South,8.1,,,,,170,2013-05-09 09:00:00
7:00 PM,66.2,57.2,73,30.33,6.2,South,8.1,-,N/A,,Mostly Cloudy,170,2013-05-09 09:00:00
7:30 PM,66.2,57.2,73,30.33,6.2,SSE,5.8,-,N/A,,Scattered Clouds,160,2013-05-09 09:30:00
8:00 PM,66.2,57.2,73,30.33,6.2,SSE,8.1,-,N/A,,Mostly Cloudy,160,2013-05-09 10:00:00
8:30 PM,66.2,57.2,73,30.33,5.6,SSE,6.9,-,N/A,Rain,Light Rain Showers,150,2013-05-09 10:30:00
9:00 PM,66,56,63,30.36,12,SSE,8.1,,,,Mostly Cloudy,150,2013-05-09 11:00:00
9:00 PM,66.2,57.2,73,30.36,6.2,SSE,8.1,-,N/A,Rain,Light Rain Showers,150,2013-05-09 11:00:00
9:30 PM,64.4,57.2,77,30.33,5.6,SSE,8.1,-,N/A,Rain,Light Rain Showers,160,2013-05-09 11:30:00
9:47 PM,66.2,55.4,68,30.33,3.7,SSE,8.1,-,N/A,Rain,Light Rain Showers,150,2013-05-09 11:47:00
10:00 PM,66,57,65,30.35,,ESE,6.9,,,,,120,2013-05-09 12:00:00
10:00 PM,66.2,57.2,73,30.33,5.0,ESE,6.9,-,N/A,Rain,Light Rain Showers,120,2013-05-09 12:00:00
10:25 PM,66.2,57.2,73,30.33,3.7,SE,5.8,-,N/A,Rain,Light Rain Showers,140,2013-05-09 12:25:00
10:30 PM,64.4,57.2,77,30.33,3.7,SSE,5.8,-,N/A,Rain,Light Rain Showers,160,2013-05-09 12:30:00
10:50 PM,64.4,57.2,77,30.33,5.0,SSE,8.1,-,N/A,Rain,Light Rain Showers,160,2013-05-09 12:50:00
11:00 PM,62.6,59.0,88,30.33,3.1,SSE,8.1,-,N/A,Rain,Light Rain Showers,160,2013-05-09 13:00:00
11:22 PM,62.6,60.8,94,30.33,3.7,South,8.1,-,N/A,Rain,Light Rain Showers,190,2013-05-09 13:22:00
11:30 PM,62.6,60.8,94,30.33,5.0,SSW,8.1,-,N/A,Rain,Light Rain Showers,200,2013-05-09 13:30:00
11:37 PM,62.6,60.8,94,30.33,3.1,SSW,8.1,-,N/A,Rain,Rain Showers,200,2013-05-09 13:37:00